Погода в Асыкате

Казахстан     40°53′38″N   68°21′52″E
темп.,
°C
ветер,
м/с
пор.,
м/с
влажн.,
%
обл.,
%
осадки,
мм/ч
давл.,
гПа
погр.,
м
18 августа, чт
чт1800:00+24с611330 0.0 1006156
03:00+21ссз46390 0.0 100577
06:00+19сз44410 0.0 100672
09:00+22сз44340 0.0 1007248
12:00+26сз34280 0.0 1007538
15:00+29ссз33250 0.0 1005781
18:00+31сз24230 0.0 1002897
21:00+26ссз46290 0.0 100242
19 августа, пт
пт1900:00+24с612330 0.0 1003173
03:00+22с510360 0.0 1004141
06:00+20ссз47400 0.0 100597
09:00+23с57330 0.0 1006359
12:00+28с56250 0.0 1005640
15:00+32с89210 0.0 10041254
18:00+31с911200 0.0 1003892
21:00+27с915280 0.0 1004327
20 августа, сб
сб2000:00+24с814330 0.0 1006300
03:00+22ссз612380 0.0 1007232
06:00+19ссз58450 0.0 1008153
09:00+22ссз57340 0.0 1010344
12:00+26ссз56300 0.0 1010799
15:00+27сз77290 0.0 10081095
18:00+28с68250 0.0 10071122
21:00+24с915320 0.0 1008414
21 августа, вс
вс2100:00+22с712360 0.0 1009318
03:00+20с611420 0.0 1008313
06:00+18ссз69440 0.0 1009263
09:00+19ссз68380 0.0 1010500
12:00+24ссз56310 0.0 1010676
15:00+28сз67250 0.0 10081108
18:00+28ссз89240 0.0 10081323
21:00+24с814310 0.0 1010325
22 августа, пн
пн2200:00+21с814340 0.0 1011442
03:00+19с610400 0.0 1012309
06:00+16ссз45460 0.0 1013169
09:00+19ссз44400 0.0 1014398
12:00+24ссз34300 0.0 1013516
15:00+28с34230 0.0 1011918
18:00+29с56190 0.0 10091262
21:00+24ссв612310 0.0 1010204